Estherville, IA

1:43 PM CDT on July 23, 2017 (GMT -0500)
Estherville Municipal

Weather History for KEST - September, 2012

Change the Weather History Date:

Sunday, September 23, 2012

  Actual Average Record
Temperature  
Mean Temperature 45 °F 58 °F  
Max Temperature 62 °F 71 °F 86 °F (2007)
Min Temperature 27 °F 45 °F 25 °F (1974)
Degree Days  
Heating Degree Days 20 8  
Month to date heating degree days 109 107  
Since 1 July heating degree days 140 139  
Cooling Degree Days 0 1  
Month to date cooling degree days 50 43  
Year to date cooling degree days 886 583  
Moisture  
Dew Point 25 °F    
Average Humidity 54    
Maximum Humidity 85    
Minimum Humidity 23    
Precipitation  
Precipitation 0.00 in 0.12 in 1.71 in (2010)
Month to date precipitation 0.21 2.55  
Sea Level Pressure  
Sea Level Pressure 30.30 in    
Wind  
Wind Speed 6 mph (WNW)    
Max Wind Speed 14 mph    
Max Gust Speed 17 mph    
Visibility 10 miles    
Events      
T = Trace of Precipitation, MM = Missing Value Source: NWS Daily Summary

Daily Weather History Graph

Daily Weather History Graph

Search for Another Location

Airport or City:

Trip Planner

Search our weather history database for the weather conditions in past years. The results will help you decide how hot, cold, wet, or windy it might be!

Date:

Astronomy

Sep. 23, 2012 Rise Set
Actual Time 7:07 AM CDT 7:13 PM CDT
Civil Twilight 6:39 AM CDT 7:42 PM CDT
Nautical Twilight 6:06 AM CDT 8:15 PM CDT
Astronomical Twilight 5:31 AM CDT 8:49 PM CDT
Moon 3:24 PM CDT 12:11 AM CDT
Length of Visible Light 13h 02m
Length of Day
12h 05m
First Quarter, 60% of the Moon is Illuminated
Sep 23
First Quarter
Sep 29
Full
Oct 8
Last Quarter
Oct 15
New
Oct 21
First Quarter

Hourly Weather History & Observations

Time (CDT) Temp. Windchill Dew Point Humidity Pressure Visibility Wind Dir Wind Speed Gust Speed Precip Events Conditions
12:52 AM 35.1 °F 29.3 °F 25.0 °F 67% 30.30 in 10.0 mi NNW 6.9 mph - N/A   Clear
1:52 AM 28.0 °F 21.7 °F 23.0 °F 81% 30.32 in 10.0 mi NW 5.8 mph - N/A   Clear
2:52 AM 28.9 °F 21.1 °F 23.0 °F 78% 30.32 in 10.0 mi WNW 8.1 mph - N/A   Clear
3:52 AM 27.0 °F 18.7 °F 23.0 °F 85% 30.32 in 10.0 mi WNW 8.1 mph - N/A   Clear
4:52 AM 28.0 °F 20.8 °F 24.1 °F 85% 30.33 in 10.0 mi WNW 6.9 mph - N/A   Clear
5:52 AM 28.0 °F 20.8 °F 23.0 °F 81% 30.33 in 10.0 mi NW 6.9 mph - N/A   Clear
6:52 AM 27.0 °F - 23.0 °F 85% 30.34 in 10.0 mi North - - N/A   Clear
7:52 AM 30.0 °F 24.1 °F 26.1 °F 85% 30.36 in 10.0 mi NW 5.8 mph - N/A   Clear
8:52 AM 41.0 °F 39.0 °F 30.9 °F 67% 30.38 in 10.0 mi WNW 3.5 mph - N/A   Clear
10:52 AM 53.1 °F - 27.0 °F 37% 30.38 in 10.0 mi NNE 8.1 mph - N/A   Clear
11:52 AM 55.0 °F - 26.1 °F 33% 30.37 in 10.0 mi North 8.1 mph - N/A   Clear
12:52 PM 57.0 °F - 26.1 °F 30% 30.35 in 10.0 mi Variable 4.6 mph - N/A   Clear
1:52 PM 57.0 °F - 25.0 °F 29% 30.32 in 10.0 mi WNW 3.5 mph - N/A   Clear
2:52 PM 60.1 °F - 25.0 °F 26% 30.30 in 10.0 mi West 10.4 mph - N/A   Clear
3:52 PM 60.1 °F - 23.0 °F 24% 30.28 in 10.0 mi West 9.2 mph - N/A   Clear
4:52 PM 61.0 °F - 24.1 °F 24% 30.26 in 10.0 mi WSW 3.5 mph - N/A   Clear
5:52 PM 61.0 °F - 23.0 °F 23% 30.24 in 10.0 mi NNW 3.5 mph - N/A   Clear
6:52 PM 57.9 °F - 21.9 °F 25% 30.24 in 10.0 mi Calm Calm - N/A   Clear
7:52 PM 50.0 °F - 24.1 °F 36% 30.25 in 10.0 mi Calm Calm - N/A   Clear
8:52 PM 45.0 °F 41.8 °F 25.0 °F 46% 30.25 in 8.0 mi South 5.8 mph - N/A   Clear
9:52 PM 42.1 °F 37.7 °F 26.1 °F 53% 30.23 in 10.0 mi SSW 6.9 mph - N/A   Clear
10:52 PM 39.9 °F 35.1 °F 26.1 °F 58% 30.22 in 10.0 mi South 6.9 mph - N/A   Clear
11:52 PM 39.0 °F 34.0 °F 26.1 °F 60% 30.21 in 10.0 mi South 6.9 mph - N/A   Clear